CW6538 Cattolica IT current weather conditions

sailwx.info

Wind from 047 at 6 knots gusting 9

Air temperature 26.1° C
Dewpoint 18.5° C

Last reported at 2014-Jul-25 14:49 UTC.
Time now 2014-Jul-25 15:57 UTC

Location: N 43°58' E 012°44'.
View on Google Maps.

See reports from other nearby stations

  
Tides and Currents Weather Stations Pressure Air Temp Water Temp Dewpoint Dewpoint Depression Visibility Wind Speed Wind Dir Waves Ship Positions
date/time (UTC)wind fromknots sea level pressurealtimeterstation pressurevisibilityair tempwater tempwave heightnotes
2014-Jul-25 14:49 047 6 gusting 9 26.1
2014-Jul-25 14:44 112 4 gusting 8 26.1
2014-Jul-25 14:39 052 5 gusting 11 26.1
2014-Jul-25 14:34 062 7 gusting 11 26.7
2014-Jul-25 14:29 101 6 gusting 10 26.7
2014-Jul-25 14:19 080 6 gusting 9 26.7
2014-Jul-25 14:14 052 5 gusting 9 26.7
2014-Jul-25 14:09 030 6 gusting 10 26.1
2014-Jul-25 14:04 051 6 gusting 10 26.7
2014-Jul-25 13:59 036 6 gusting 10 26.7
2014-Jul-25 13:54 009 7 gusting 9 26.7
2014-Jul-25 13:49 091 6 gusting 10 26.7
2014-Jul-25 13:44 027 4 gusting 10 26.7
2014-Jul-25 13:39 060 6 gusting 9 26.7
2014-Jul-25 13:34 049 6 gusting 9 27.2
2014-Jul-25 13:29 355 4 gusting 11 27.2
2014-Jul-25 13:24 011 7 gusting 11 26.7
2014-Jul-25 13:19 057 6 gusting 10 26.7
2014-Jul-25 13:14 021 6 gusting 10 27.2
2014-Jul-25 13:09 075 7 gusting 10 27.2
2014-Jul-25 13:04 043 7 gusting 10 27.2
2014-Jul-25 12:59 055 6 gusting 9 27.2
2014-Jul-25 12:54 101 6 gusting 11 27.2
2014-Jul-25 12:49 043 7 gusting 12 27.2
2014-Jul-25 12:44 050 6 gusting 11 26.7
2014-Jul-25 12:39 005 6 gusting 11 26.7
2014-Jul-25 12:34 049 5 gusting 10 26.7
2014-Jul-25 12:29 051 6 gusting 11 26.7
2014-Jul-25 12:24 043 7 gusting 11 26.7
2014-Jul-25 12:19 042 6 gusting 10 26.7
2014-Jul-25 12:14 033 6 gusting 11 26.7
2014-Jul-25 12:09 046 7 gusting 11 26.7
2014-Jul-25 12:04 033 6 gusting 10 26.7
2014-Jul-25 11:59 046 6 gusting 9 26.7
2014-Jul-25 11:54 053 5 gusting 8 26.7
2014-Jul-25 11:49 046 5 gusting 10 27.2
2014-Jul-25 11:44 014 6 gusting 10 27.2
2014-Jul-25 11:39 044 5 gusting 9 26.7
2014-Jul-25 11:34 060 6 gusting 10 26.7
2014-Jul-25 11:29 044 6 gusting 11 26.7
2014-Jul-25 11:24 040 7 gusting 11 26.7
2014-Jul-25 11:19 035 6 gusting 9 26.7
2014-Jul-25 11:14 056 7 gusting 9 26.7
2014-Jul-25 11:09 065 5 gusting 11 26.7
2014-Jul-25 11:04 040 6 gusting 11 26.1
2014-Jul-25 10:59 028 8 gusting 10 26.7
2014-Jul-25 10:53 054 6 gusting 10 26.7
2014-Jul-25 10:49 018 6 gusting 8 26.7
2014-Jul-25 10:44 038 4 gusting 8 26.7
2014-Jul-25 10:39 073 6 gusting 9 26.1
2014-Jul-25 10:34 043 6 gusting 9 26.7
2014-Jul-25 10:29 058 6 gusting 8 26.1
2014-Jul-25 10:24 052 6 gusting 9 26.1
2014-Jul-25 10:19 041 6 gusting 9 26.1
2014-Jul-25 10:14 054 5 gusting 9 26.1
2014-Jul-25 10:09 023 6 gusting 9 26.1
2014-Jul-25 10:04 034 5 gusting 8 25.6
2014-Jul-25 09:59 026 5 gusting 8 25.6
2014-Jul-25 09:54 360 6 gusting 8 25.6
2014-Jul-25 09:49 030 4 gusting 8 25.6
2014-Jul-25 09:44 346 5 gusting 7 26.1
2014-Jul-25 09:39 009 4 gusting 9 25.6
2014-Jul-25 09:34 040 4 gusting 9 25.6
2014-Jul-25 09:29 355 6 gusting 8 25.6
2014-Jul-25 09:24 015 5 gusting 7 26.1
2014-Jul-25 09:19 023 5 gusting 7 25.6
2014-Jul-25 09:14 348 4 gusting 7 25.6
2014-Jul-25 09:09 351 4 gusting 8 25.0
2014-Jul-25 09:04 340 6 gusting 8 25.0
2014-Jul-25 08:59 009 4 gusting 8 25.6
2014-Jul-25 08:54 013 5 gusting 7 25.0
2014-Jul-25 08:49 005 4 gusting 7 25.0
2014-Jul-25 08:44 005 5 gusting 7 25.0
2014-Jul-25 08:39 005 2 gusting 6 25.0
2014-Jul-25 08:34 355 3 gusting 6 25.0
2014-Jul-25 08:29 061 3 gusting 7 25.0
2014-Jul-25 08:24 046 5 gusting 7 25.0
2014-Jul-25 08:19 351 6 gusting 7 24.4
2014-Jul-25 08:14 005 5 gusting 7 24.4
2014-Jul-25 08:09 355 3 gusting 6 24.4
2014-Jul-25 08:04 355 4 gusting 6 24.4
2014-Jul-25 07:59 019 3 gusting 6 23.9
2014-Jul-25 07:54 346 1 gusting 6 23.9
2014-Jul-25 07:49 005 3 gusting 6 23.9
2014-Jul-25 07:44 333 4 gusting 6 23.9
2014-Jul-25 07:39 015 3 gusting 6 23.3
2014-Jul-25 07:34 331 1 gusting 6 23.3
2014-Jul-25 07:29 348 5 gusting 6 23.3
2014-Jul-25 07:24 355 0 gusting 5 22.8
2014-Jul-25 07:19 355 22.2
2014-Jul-25 07:13 005 2 gusting 6 22.2
2014-Jul-25 07:09 340 4 gusting 6 22.2
2014-Jul-25 07:04 348 4 gusting 8 22.2
2014-Jul-25 06:59 315 5 gusting 8 22.2
2014-Jul-25 06:54 355 3 gusting 6 22.2
2014-Jul-25 06:49 341 3 gusting 6 22.2
2014-Jul-25 06:44 340 4 gusting 6 22.2
2014-Jul-25 06:38 341 2 gusting 6 22.2
2014-Jul-25 06:34 311 0 gusting 6 21.7
2014-Jul-25 06:29 333 0 gusting 6 21.7
2014-Jul-25 06:24 340 2 gusting 5 21.1
2014-Jul-25 06:19 311 0 gusting 5 21.1
2014-Jul-25 06:14 271 21.1
2014-Jul-25 06:09 265 21.1
2014-Jul-25 06:04 292 1 gusting 6 20.6
2014-Jul-25 05:59 265 20.6
2014-Jul-25 05:54 259 2 gusting 6 20.6
2014-Jul-25 05:49 226 1 gusting 5 20.6
2014-Jul-25 05:44 226 0 gusting 4 20.6
2014-Jul-25 05:39 226 0 gusting 5 20.0
2014-Jul-25 05:34 252 0 gusting 5 20.0
2014-Jul-25 05:29 218 0 gusting 3 20.0
2014-Jul-25 05:24 218 1 gusting 2 20.0
2014-Jul-25 05:19 217 0 gusting 1 20.0
2014-Jul-25 05:14 217 20.0
2014-Jul-25 05:09 218 20.0
2014-Jul-25 05:04 218 19.4
2014-Jul-25 04:59 217 0 gusting 1 19.4
2014-Jul-25 04:54 217 0 gusting 3 19.4
2014-Jul-25 04:49 217 19.4
2014-Jul-25 04:44 218 19.4
2014-Jul-25 04:39 218 19.4
2014-Jul-25 04:34 218 19.4
2014-Jul-25 04:29 217 1 gusting 4 19.4
2014-Jul-25 04:24 217 1 gusting 2 19.4
2014-Jul-25 04:19 218 19.4
2014-Jul-25 04:14 217 19.4
2014-Jul-25 04:09 218 0 gusting 1 19.4
2014-Jul-25 04:04 217 19.4
2014-Jul-25 03:59 217 0 gusting 2 19.4
2014-Jul-25 03:54 218 1 gusting 4 19.4
2014-Jul-25 03:49 217 2 gusting 4 19.4
2014-Jul-25 03:44 218 3 gusting 4 19.4
2014-Jul-25 03:39 219 2 gusting 4 19.4
2014-Jul-25 03:34 221 0 gusting 3 19.4
2014-Jul-25 03:29 221 2 gusting 3 19.4
2014-Jul-25 03:24 221 19.4
2014-Jul-25 03:19 221 0 gusting 3 19.4
2014-Jul-25 03:14 221 0 gusting 3 19.4
2014-Jul-25 03:09 221 19.4
2014-Jul-25 03:04 221 19.4
2014-Jul-25 02:59 221 19.4
2014-Jul-25 02:54 221 0 gusting 3 19.4
2014-Jul-25 02:49 221 19.4
2014-Jul-25 02:44 221 0 gusting 2 19.4
2014-Jul-25 02:39 221 1 gusting 4 19.4
2014-Jul-25 02:34 221 2 gusting 4 19.4
2014-Jul-25 02:29 208 19.4
2014-Jul-25 02:24 208 19.4
2014-Jul-25 02:19 207 0 gusting 5 19.4
2014-Jul-25 02:14 208 2 gusting 5 19.4
2014-Jul-25 02:09 170 0 gusting 1 19.4
2014-Jul-25 02:04 170 19.4
2014-Jul-25 01:59 169 19.4
2014-Jul-25 01:54 169 19.4
2014-Jul-25 01:49 169 19.4
2014-Jul-25 01:44 169 1 gusting 3 19.4
2014-Jul-25 01:39 169 19.4
2014-Jul-25 01:34 170 0 gusting 3 19.4
2014-Jul-25 01:29 170 0 gusting 3 19.4
2014-Jul-25 01:24 170 1 gusting 2 19.4
2014-Jul-25 01:19 170 19.4
2014-Jul-25 01:14 170 19.4
2014-Jul-25 01:09 170 19.4
2014-Jul-25 01:04 169 19.4
2014-Jul-25 00:58 169 0 gusting 4 19.4
2014-Jul-25 00:54 170 19.4
2014-Jul-25 00:49 170 19.4
2014-Jul-25 00:44 170 19.4
2014-Jul-25 00:39 169 19.4
2014-Jul-25 00:34 169 1 gusting 2 19.4
2014-Jul-25 00:29 169 19.4
2014-Jul-25 00:24 169 19.4
2014-Jul-25 00:19 169 19.4
2014-Jul-25 00:14 169 19.4
2014-Jul-25 00:09 169 19.4
2014-Jul-24 23:59 170 0 gusting 4 20.0
2014-Jul-24 23:54 169 3 gusting 4 20.0
2014-Jul-24 23:49 169 20.0
2014-Jul-24 23:44 169 20.0
2014-Jul-24 23:39 170 20.0
2014-Jul-24 23:34 169 20.0
2014-Jul-24 23:29 170 20.0
2014-Jul-24 23:24 170 20.0
2014-Jul-24 23:19 170 20.0
2014-Jul-24 23:14 170 1 gusting 4 20.0
2014-Jul-24 23:09 169 1 gusting 4 20.0
2014-Jul-24 23:04 169 0 gusting 2 20.0
2014-Jul-24 22:59 170 20.0
2014-Jul-24 22:54 170 0 gusting 1 20.0
2014-Jul-24 22:49 169 0 gusting 3 20.0
2014-Jul-24 22:44 170 1 gusting 3 20.0
2014-Jul-24 22:39 170 20.0
2014-Jul-24 22:34 170 0 gusting 4 20.0
2014-Jul-24 22:29 170 3 gusting 4 20.6
2014-Jul-24 22:24 170 20.6
2014-Jul-24 22:19 169 20.6
2014-Jul-24 22:14 170 20.6
2014-Jul-24 22:09 170 20.6
2014-Jul-24 22:04 169 20.6
2014-Jul-24 21:59 169 20.6
2014-Jul-24 21:54 169 20.6
2014-Jul-24 21:49 170 20.6
2014-Jul-24 21:44 169 2 gusting 3 20.6
2014-Jul-24 21:39 170 20.6
2014-Jul-24 21:34 169 1 gusting 2 20.6
2014-Jul-24 21:29 170 0 gusting 1 20.6
2014-Jul-24 21:24 170 20.6
2014-Jul-24 21:19 170 20.6
2014-Jul-24 21:14 169 20.6
2014-Jul-24 21:09 170 20.6
2014-Jul-24 21:04 169 20.6
2014-Jul-24 20:59 170 20.6
2014-Jul-24 20:54 171 1 gusting 4 20.6
2014-Jul-24 20:49 171 1 gusting 4 21.1
2014-Jul-24 20:39 174 1 gusting 2 21.1
2014-Jul-24 20:34 174 21.1
2014-Jul-24 20:29 174 21.1
2014-Jul-24 20:24 174 21.1
2014-Jul-24 20:19 174 21.1
2014-Jul-24 20:14 174 21.1
2014-Jul-24 20:09 174 21.1
2014-Jul-24 20:04 174 21.1
2014-Jul-24 19:59 174 21.1
2014-Jul-24 19:54 174 21.1
2014-Jul-24 19:49 174 21.1
2014-Jul-24 19:44 174 1 gusting 4 21.1
2014-Jul-24 19:39 174 1 gusting 3 21.1
2014-Jul-24 19:34 174 21.1
2014-Jul-24 19:29 174 21.1
2014-Jul-24 19:24 174 0 gusting 4 21.1
2014-Jul-24 19:14 128 21.1
2014-Jul-24 19:09 128 21.1
2014-Jul-24 19:04 128 21.1
2014-Jul-24 18:59 128 21.1
2014-Jul-24 18:54 128 0 gusting 3 21.1
2014-Jul-24 18:49 128 1 gusting 2 21.1
2014-Jul-24 18:44 071 1 gusting 1 21.7
2014-Jul-24 18:39 044 21.7
2014-Jul-24 18:34 044 21.7
2014-Jul-24 18:29 044 21.7
2014-Jul-24 18:24 044 3 gusting 5 21.7
2014-Jul-24 18:19 031 1 gusting 6 21.7
2014-Jul-24 18:14 056 5 gusting 8 21.7
2014-Jul-24 18:09 042 6 gusting 8 22.2
2014-Jul-24 18:04 047 5 gusting 7 22.2
2014-Jul-24 17:59 038 5 gusting 7 22.2
2014-Jul-24 17:54 059 3 gusting 6 22.2
2014-Jul-24 17:49 036 1 gusting 4 22.2
2014-Jul-24 17:44 039 0 gusting 4 22.2
2014-Jul-24 17:39 046 21.7
2014-Jul-24 17:34 046 21.7
2014-Jul-24 17:29 046 0 gusting 3 21.1
2014-Jul-24 17:24 046 21.1
2014-Jul-24 17:19 046 1 gusting 5 21.1
2014-Jul-24 17:14 050 2 gusting 5 21.1
2014-Jul-24 17:04 360 21.1
2014-Jul-24 16:59 360 2 gusting 4 21.1
2014-Jul-24 16:54 360 0 gusting 3 21.1
2014-Jul-24 16:49 360 0 gusting 5 21.1
2014-Jul-24 16:44 360 3 gusting 5 21.1
2014-Jul-24 16:39 005 2 gusting 5 21.1
2014-Jul-24 16:34 022 21.1
2014-Jul-24 16:29 345 5 gusting 10 21.1
2014-Jul-24 16:24 005 6 gusting 10 21.7
2014-Jul-24 16:19 005 4 gusting 9 21.7
2014-Jul-24 16:14 350 4 gusting 9 21.7
2014-Jul-24 16:09 321 4 gusting 6 21.7
2014-Jul-24 16:04 317 1 gusting 6 21.7
2014-Jul-24 15:59 300 4 gusting 6 21.7
2014-Jul-24 15:54 279 1 gusting 4 22.2
2014-Jul-24 15:49 279 22.2
2014-Jul-24 15:44 279 21.7
2014-Jul-24 15:39 279 1 gusting 7 21.7
2014-Jul-24 15:34 271 4 gusting 7 22.2
2014-Jul-24 15:29 296 3 gusting 5 22.2
2014-Jul-24 15:24 292 4 gusting 5 22.2
2014-Jul-24 15:19 259 1 gusting 4 22.2
2014-Jul-24 15:14 259 22.2
2014-Jul-24 15:09 259 22.2
2014-Jul-24 15:04 284 1 gusting 9 22.2
2014-Jul-24 14:59 286 3 gusting 10 22.2
2014-Jul-24 14:54 269 6 gusting 10 22.8
2014-Jul-24 14:49 309 5 gusting 9 22.8
2014-Jul-24 14:44 238 4 gusting 7 23.3
2014-Jul-24 14:39 320 2 gusting 7 22.8
2014-Jul-24 14:34 257 3 gusting 8 22.8
2014-Jul-24 14:29 319 4 gusting 9 22.8
2014-Jul-24 14:24 291 5 gusting 9 22.8
2014-Jul-24 14:19 302 5 gusting 12 22.8
2014-Jul-24 14:14 285 6 gusting 12 22.8
2014-Jul-24 14:09 331 6 gusting 10 22.8
2014-Jul-24 14:04 337 6 gusting 10 22.8
2014-Jul-24 13:59 334 7 gusting 11 22.8
2014-Jul-24 13:54 301 7 gusting 13 22.8
2014-Jul-24 13:49 302 7 gusting 15 23.3
2014-Jul-24 13:44 319 9 gusting 15 23.3
2014-Jul-24 13:39 315 7 gusting 13 23.9
2014-Jul-24 13:34 332 6 gusting 15 23.9
2014-Jul-24 13:29 022 9 gusting 16 24.4
2014-Jul-24 13:24 337 8 gusting 17 24.4
2014-Jul-24 13:19 349 10 gusting 17 25.0
2014-Jul-24 13:14 360 8 gusting 17 25.0
2014-Jul-24 13:09 355 11 gusting 17 25.0
2014-Jul-24 13:04 012 7 gusting 15 25.6
2014-Jul-24 12:59 344 8 gusting 15 25.6
2014-Jul-24 12:54 335 6 gusting 13 25.6
2014-Jul-24 12:49 348 8 gusting 13 25.6
2014-Jul-24 12:44 351 8 gusting 15 26.1
2014-Jul-24 12:39 009 6 gusting 15 26.7
2014-Jul-24 12:34 355 6 gusting 15 26.7
2014-Jul-24 12:29 019 7 gusting 15 26.7
2014-Jul-24 12:24 338 7 gusting 13 27.2
2014-Jul-24 12:19 328 8 gusting 15 26.7
2014-Jul-24 12:14 009 6 gusting 17 27.2
2014-Jul-24 12:09 022 10 gusting 17 27.2
2014-Jul-24 12:04 013 9 gusting 15 27.8
2014-Jul-24 11:59 009 7 gusting 13 27.8
2014-Jul-24 11:54 344 7 gusting 13 27.8
2014-Jul-24 11:49 342 6 gusting 13 27.8
2014-Jul-24 11:44 344 6 gusting 17 27.2
2014-Jul-24 11:39 013 11 gusting 17 27.2
2014-Jul-24 11:34 360 10 gusting 13 27.8
2014-Jul-24 11:29 016 4 gusting 13 27.8
2014-Jul-24 11:24 042 6 gusting 13 27.8
2014-Jul-24 11:19 348 8 gusting 13 27.8
2014-Jul-24 11:14 013 8 gusting 13 27.2
2014-Jul-24 11:09 360 9 gusting 16 27.2
2014-Jul-24 11:04 030 10 gusting 16 27.2
2014-Jul-24 10:59 005 8 gusting 13 27.8
2014-Jul-24 10:54 355 8 gusting 13 27.8
2014-Jul-24 10:49 005 6 gusting 12 27.8
2014-Jul-24 10:44 005 6 gusting 12 27.8
2014-Jul-24 10:39 040 5 gusting 12 27.8
2014-Jul-24 10:34 009 4 gusting 11 27.2
2014-Jul-24 10:29 015 7 gusting 11 27.2
2014-Jul-24 10:24 335 6 gusting 12 27.2
2014-Jul-24 10:19 005 8 gusting 13 26.7
2014-Jul-24 10:14 010 9 gusting 13 26.7
2014-Jul-24 10:09 016 6 gusting 10 26.7
2014-Jul-24 10:04 009 6 gusting 10 27.2
2014-Jul-24 09:59 011 7 gusting 10 27.2
2014-Jul-24 09:54 010 6 gusting 10 27.2
2014-Jul-24 09:49 014 5 gusting 10 27.2
2014-Jul-24 09:39 355 7 gusting 10 27.2
2014-Jul-24 09:34 005 6 gusting 10 27.2
2014-Jul-24 09:29 022 6 gusting 10 27.2
2014-Jul-24 09:24 016 6 gusting 10 27.2
2014-Jul-24 09:19 018 6 gusting 11 27.2
2014-Jul-24 09:14 005 6 gusting 8 27.2
2014-Jul-24 09:09 350 6 gusting 8 26.7
2014-Jul-24 09:04 005 3 gusting 6 26.7
2014-Jul-24 08:59 344 4 gusting 6 26.1
2014-Jul-24 08:54 355 2 gusting 7 26.1
2014-Jul-24 08:49 329 5 gusting 8 25.6
2014-Jul-24 08:44 319 6 gusting 7 26.1
2014-Jul-24 08:39 011 5 gusting 7 26.7
2014-Jul-24 08:24 005 6 gusting 7 26.1
2014-Jul-24 08:19 328 5 gusting 7 26.1
2014-Jul-24 08:14 005 4 gusting 7 25.6
2014-Jul-24 08:09 333 5 gusting 7 25.6
2014-Jul-24 08:04 336 4 gusting 7 25.6
2014-Jul-24 07:58 327 3 gusting 7 25.6
2014-Jul-24 07:53 355 2 gusting 8 25.6
2014-Jul-24 07:49 346 4 gusting 8 25.6
2014-Jul-24 07:44 338 3 gusting 6 25.0
2014-Jul-24 07:39 290 3 gusting 7 25.0
2014-Jul-24 07:34 005 4 gusting 7 24.4
2014-Jul-24 07:29 324 4 gusting 7 24.4
2014-Jul-24 07:24 292 4 gusting 7 23.9
2014-Jul-24 07:19 317 1 gusting 8 23.9
2014-Jul-24 07:14 346 3 gusting 10 23.9
2014-Jul-24 07:09 281 6 gusting 10 23.9
2014-Jul-24 07:04 281 5 gusting 10 23.9
2014-Jul-24 06:59 307 4 gusting 9 23.9
2014-Jul-24 06:54 293 6 gusting 9 23.9
2014-Jul-24 06:49 335 4 gusting 6 23.3
2014-Jul-24 06:44 319 3 gusting 8 23.3
2014-Jul-24 06:39 271 3 gusting 8 22.8
2014-Jul-24 06:34 311 22.8
2014-Jul-24 06:29 302 22.2
2014-Jul-24 06:24 232 1 gusting 4 22.2
2014-Jul-24 06:19 232 22.2
2014-Jul-24 06:14 232 21.7
2014-Jul-24 06:09 232 21.7
2014-Jul-24 05:59 232 21.1
2014-Jul-24 05:54 232 21.1
2014-Jul-24 05:49 232 21.1
2014-Jul-24 05:44 232 21.1
2014-Jul-24 04:44 232 1 gusting 2 19.4
2014-Jul-24 04:39 232 19.4
2014-Jul-24 04:34 232 19.4
2014-Jul-24 04:29 232 19.4
2014-Jul-24 04:24 232 2 gusting 2 20.0
2014-Jul-24 04:19 232 1 gusting 3 20.0
2014-Jul-24 04:14 232 1 gusting 3 20.0
2014-Jul-24 04:09 232 20.0
2014-Jul-24 04:03 232 1 gusting 3 20.0
2014-Jul-24 03:59 232 0 gusting 2 20.0
2014-Jul-24 03:54 232 19.4
2014-Jul-24 03:49 232 19.4
2014-Jul-24 03:44 232 19.4
2014-Jul-24 03:39 232 19.4
2014-Jul-24 03:29 232 1 gusting 3 19.4
2014-Jul-24 03:24 232 19.4
2014-Jul-24 03:19 232 19.4
2014-Jul-24 03:14 232 19.4
2014-Jul-24 03:09 232 19.4
2014-Jul-24 03:04 232 0 gusting 3 19.4
2014-Jul-24 02:59 232 2 gusting 3 19.4
2014-Jul-24 02:54 232 19.4
2014-Jul-24 02:48 232 0 gusting 1 19.4
2014-Jul-24 02:44 232 18.9
2014-Jul-24 02:39 232 0 gusting 5 18.9
2014-Jul-24 02:34 236 1 gusting 5 18.9
2014-Jul-24 02:29 276 2 gusting 4 18.9
2014-Jul-24 02:24 186 1 gusting 4 18.9
2014-Jul-24 02:18 186 2 gusting 5 18.9
2014-Jul-24 02:14 186 3 gusting 5 18.9
2014-Jul-24 02:09 186 3 gusting 5 18.9
2014-Jul-24 02:04 198 2 gusting 4 19.4
2014-Jul-24 01:59 198 3 gusting 5 19.4
2014-Jul-24 01:54 198 3 gusting 4 19.4
2014-Jul-24 01:49 198 3 gusting 5 19.4
2014-Jul-24 01:43 198 3 gusting 5 19.4
2014-Jul-24 01:39 198 0 gusting 6 19.4
2014-Jul-24 01:34 200 4 gusting 6 19.4
2014-Jul-24 01:29 217 2 gusting 5 19.4
2014-Jul-24 01:24 223 1 gusting 5 19.4
2014-Jul-24 01:19 198 3 gusting 5 19.4
2014-Jul-24 01:14 198 2 gusting 4 19.4
2014-Jul-24 01:09 198 1 gusting 5 19.4
2014-Jul-24 01:04 200 3 gusting 5 19.4
2014-Jul-24 00:59 202 4 gusting 5 19.4
2014-Jul-24 00:54 198 2 gusting 5 19.4
2014-Jul-24 00:49 200 3 gusting 6 19.4
2014-Jul-24 00:44 201 3 gusting 6 19.4
2014-Jul-24 00:39 202 3 gusting 5 19.4
2014-Jul-24 00:34 190 3 gusting 6 20.0
2014-Jul-24 00:29 190 4 gusting 6 20.0
2014-Jul-24 00:24 190 4 gusting 5 20.0
2014-Jul-24 00:19 190 2 gusting 5 20.0
2014-Jul-24 00:14 190 2 gusting 5 20.0
2014-Jul-24 00:09 190 3 gusting 5 20.0
2014-Jul-24 00:04 190 3 gusting 5 20.0
2014-Jul-23 23:59 190 2 gusting 6 20.0
2014-Jul-23 23:54 190 3 gusting 6 20.0
2014-Jul-23 23:49 192 3 gusting 5 20.0
2014-Jul-23 23:44 192 3 gusting 5 20.0
2014-Jul-23 23:39 194 3 gusting 4 20.0
2014-Jul-23 23:34 194 3 gusting 4 20.0
2014-Jul-23 23:29 198 3 gusting 4 20.0
2014-Jul-23 23:24 198 3 gusting 4 20.6
2014-Jul-23 23:18 198 3 gusting 4 20.6
2014-Jul-23 23:14 198 2 gusting 5 20.6
2014-Jul-23 23:09 198 4 gusting 5 20.6
2014-Jul-23 23:04 207 1 gusting 5 20.6
2014-Jul-23 22:59 187 2 gusting 5 20.6
2014-Jul-23 22:54 187 2 gusting 5 20.6
2014-Jul-23 22:49 187 3 gusting 5 20.6
2014-Jul-23 22:44 188 1 gusting 5 20.6
2014-Jul-23 22:39 195 3 gusting 5 20.6
2014-Jul-23 22:34 192 4 gusting 5 20.6
2014-Jul-23 22:29 192 3 gusting 5 20.6
2014-Jul-23 22:24 192 2 gusting 4 20.6
2014-Jul-23 22:18 192 2 gusting 5 21.1
2014-Jul-23 22:14 192 2 gusting 4 21.1
2014-Jul-23 22:09 192 2 gusting 5 21.1
2014-Jul-23 22:04 175 2 gusting 4 21.1
2014-Jul-23 21:59 173 2 gusting 5 21.1
2014-Jul-23 21:54 173 3 gusting 5 21.1
2014-Jul-23 21:49 173 4 gusting 5 21.1
2014-Jul-23 21:44 173 0 gusting 4 21.1
2014-Jul-23 21:38 173 1 gusting 5 21.1
2014-Jul-23 21:34 173 2 gusting 5 21.1
2014-Jul-23 21:29 174 3 gusting 4 21.7
2014-Jul-23 21:24 174 0 gusting 3 21.7
2014-Jul-23 21:19 174 1 gusting 2 21.7
2014-Jul-23 21:14 174 21.7
2014-Jul-23 21:09 174 3 gusting 4 21.7
2014-Jul-23 20:59 174 0 gusting 3 21.7
2014-Jul-23 20:54 174 21.7
2014-Jul-23 20:49 174 21.7
2014-Jul-23 20:44 174 22.2
2014-Jul-23 20:39 174 0 gusting 4 22.2
2014-Jul-23 20:34 174 3 gusting 4 22.2
2014-Jul-23 20:29 174 0 gusting 1 22.2
2014-Jul-23 20:24 174 22.2
2014-Jul-23 20:19 174 2 gusting 4 22.2
2014-Jul-23 20:14 174 22.8
2014-Jul-23 20:09 174 0 gusting 4 22.8
2014-Jul-23 20:04 174 3 gusting 4 22.8
2014-Jul-23 19:59 178 3 gusting 4 22.8
2014-Jul-23 19:54 175 1 gusting 4 22.8
2014-Jul-23 19:49 140 23.3
2014-Jul-23 19:44 140 23.3
2014-Jul-23 19:39 140 23.3
2014-Jul-23 19:28 136 2 gusting 3 23.9
2014-Jul-23 19:24 132 23.9
2014-Jul-23 19:19 132 24.4
2014-Jul-23 19:14 132 1 gusting 3 24.4
2014-Jul-23 19:09 123 24.4
2014-Jul-23 19:04 123 0 gusting 2 24.4
2014-Jul-23 18:59 123 1 gusting 4 25.0
2014-Jul-23 18:54 123 0 gusting 4 25.0
2014-Jul-23 18:49 126 1 gusting 4 25.6
2014-Jul-23 18:44 026 25.6
2014-Jul-23 18:39 026 25.6
2014-Jul-23 18:34 026 1 gusting 5 25.6
2014-Jul-23 18:29 026 2 gusting 4 25.6
2014-Jul-23 18:23 049 25.6
2014-Jul-23 18:19 049 1 gusting 4 25.6
2014-Jul-23 18:14 005 2 gusting 5 25.6
2014-Jul-23 18:09 005 3 gusting 5 26.1
2014-Jul-23 18:04 005 1 gusting 5 26.1
2014-Jul-23 17:59 005 2 gusting 6 26.1
2014-Jul-23 17:54 017 2 gusting 6 26.1
2014-Jul-23 17:49 033 3 gusting 6 26.1
2014-Jul-23 17:44 350 1 gusting 6 26.7
2014-Jul-23 17:39 349 3 gusting 6 26.7
2014-Jul-23 17:34 015 4 gusting 6 26.7
2014-Jul-23 17:29 034 4 gusting 6 26.1
2014-Jul-23 17:24 355 2 gusting 6 26.7
2014-Jul-23 17:19 015 3 gusting 6 26.7
2014-Jul-23 17:14 014 4 gusting 6 26.7
2014-Jul-23 17:09 355 4 gusting 6 26.7
2014-Jul-23 17:04 015 3 gusting 6 26.7
2014-Jul-23 16:59 005 2 gusting 6 26.7
2014-Jul-23 16:54 018 2 gusting 6 26.7
2014-Jul-23 16:49 005 4 gusting 6 26.7
2014-Jul-23 16:44 049 5 gusting 6 27.2
2014-Jul-23 16:39 017 5 gusting 7 27.2
2014-Jul-23 16:34 344 5 gusting 7 27.2
2014-Jul-23 16:29 360 5 gusting 7 27.2
2014-Jul-23 16:23 287 3 gusting 7 27.2
2014-Jul-23 16:19 013 4 gusting 6 27.2
2014-Jul-23 16:14 030 3 gusting 6 27.2
2014-Jul-23 16:09 342 2 gusting 6 27.8
2014-Jul-23 16:04 355 4 gusting 5 27.8
2014-Jul-23 15:59 047 3 gusting 6 27.8
2014-Jul-23 15:54 019 5 gusting 7 27.8
2014-Jul-23 15:49 005 4 gusting 7 27.8
2014-Jul-23 15:44 340 4 gusting 7 27.2
2014-Jul-23 15:39 350 6 gusting 8 27.2
2014-Jul-23 15:34 355 5 gusting 8 27.8
2014-Jul-23 15:29 344 6 gusting 8 27.8
2014-Jul-23 15:24 342 4 gusting 6 27.8
2014-Jul-23 15:18 017 4 gusting 7 27.8
2014-Jul-23 15:14 026 5 gusting 7 27.8
2014-Jul-23 15:09 028 4 gusting 7 27.8